When you browse on this site, cookies collect data to enhance your experience and personalize the content and advertising you see.
Visit our Privacy Policy to learn more. By continuing to use the site, you agree to this use of cookies and data.
  • In Österreich
  • Länderverzeichnis
  • Für 7 Tage
  • Wassertemperatur
  • Satellitenkarten
  • Wetterkarte
  • News
  • Widgets
  • user-avatar
    Anmelden

    Stündliche Wetter Crystal Lake

    Heute, 23 April, Dienstag

    Zeit Temperatur Niederschläge Wind Luftdruck Luftfeuchtigkeit
    00:00 +17°C° 0.3 mm 7 m/S 732 mmHg 87%
    01:00 +15°C° 0 mm 7 m/S 733 mmHg 87%
    02:00 +14°C° 0 mm 7 m/S 733 mmHg 87%
    03:00 +11°C° 0 mm 7 m/S 733 mmHg 86%
    04:00 +11°C° 0 mm 6 m/S 734 mmHg 87%
    05:00 +10°C° 0 mm 6 m/S 735 mmHg 87%
    06:00 +10°C° 0 mm 5 m/S 736 mmHg 87%
    07:00 +10°C° 0 mm 5 m/S 736 mmHg 84%
    08:00 +10°C° 0 mm 5 m/S 737 mmHg 81%
    09:00 +11°C° 0 mm 4 m/S 738 mmHg 78%
    10:00 +12°C° 0 mm 4 m/S 738 mmHg 76%
    11:00 +12°C° 0 mm 4 m/S 738 mmHg 73%
    12:00 +13°C° 0 mm 4 m/S 738 mmHg 71%
    13:00 +14°C° 0 mm 3 m/S 738 mmHg 65%
    14:00 +16°C° 0 mm 3 m/S 738 mmHg 59%
    15:00 +18°C° 0 mm 3 m/S 738 mmHg 53%
    16:00 +17°C° 0 mm 2 m/S 738 mmHg 55%
    17:00 +16°C° 0 mm 2 m/S 738 mmHg 58%
    18:00 +15°C° 0 mm 1 m/S 738 mmHg 61%
    19:00 +14°C° 0 mm 1 m/S 739 mmHg 65%
    20:00 +13°C° 0 mm 1 m/S 739 mmHg 68%
    21:00 +11°C° 0 mm 1 m/S 739 mmHg 71%
    22:00 +11°C° 0 mm 1 m/S 739 mmHg 74%
    23:00 +9°C° 0 mm 2 m/S 739 mmHg 77%

    Morgen, 24 April, Mittwoch

    Zeit Temperatur Niederschläge Wind Luftdruck Luftfeuchtigkeit
    00:00 +9°C° 0 mm 2 m/S 739 mmHg 80%
    01:00 +8°C° 0 mm 2 m/S 739 mmHg 82%
    02:00 +8°C° 0 mm 2 m/S 739 mmHg 85%
    03:00 +8°C° 0 mm 2 m/S 739 mmHg 88%
    04:00 +8°C° 0 mm 2 m/S 739 mmHg 88%
    05:00 +8°C° 0 mm 2 m/S 739 mmHg 89%
    06:00 +8°C° 0 mm 2 m/S 739 mmHg 89%
    07:00 +10°C° 0 mm 2 m/S 739 mmHg 82%
    08:00 +13°C° 0 mm 2 m/S 739 mmHg 74%
    09:00 +16°C° 0 mm 3 m/S 739 mmHg 67%
    10:00 +17°C° 0 mm 3 m/S 739 mmHg 60%
    11:00 +18°C° 0 mm 3 m/S 738 mmHg 54%
    12:00 +19°C° 0 mm 3 m/S 738 mmHg 47%
    13:00 +20°C° 0 mm 3 m/S 737 mmHg 47%
    14:00 +20°C° 0 mm 4 m/S 737 mmHg 46%
    15:00 +20°C° 0 mm 4 m/S 736 mmHg 45%
    16:00 +19°C° 0 mm 3 m/S 736 mmHg 49%
    17:00 +18°C° 0 mm 3 m/S 736 mmHg 54%
    18:00 +17°C° 0 mm 2 m/S 735 mmHg 58%
    19:00 +16°C° 0 mm 2 m/S 735 mmHg 59%
    20:00 +15°C° 0 mm 2 m/S 735 mmHg 61%
    21:00 +13°C° 0 mm 2 m/S 736 mmHg 62%
    22:00 +13°C° 0 mm 2 m/S 735 mmHg 63%
    23:00 +12°C° 0 mm 2 m/S 735 mmHg 63%

    übermorgen, 25 April, Donnerstag

    Zeit Temperatur Niederschläge Wind Luftdruck Luftfeuchtigkeit
    00:00 +12°C° 0 mm 2 m/S 735 mmHg 63%
    01:00 +10°C° 0 mm 3 m/S 734 mmHg 63%
    02:00 +10°C° 0 mm 3 m/S 734 mmHg 63%
    03:00 +10°C° 0 mm 3 m/S 734 mmHg 63%
    04:00 +10°C° 0 mm 3 m/S 734 mmHg 65%
    05:00 +10°C° 0 mm 2 m/S 734 mmHg 67%
    06:00 +10°C° 0 mm 2 m/S 734 mmHg 69%
    07:00 +13°C° 0 mm 2 m/S 734 mmHg 64%
    08:00 +16°C° 0 mm 3 m/S 734 mmHg 60%
    09:00 +18°C° 0 mm 3 m/S 734 mmHg 56%
    10:00 +19°C° 0 mm 3 m/S 733 mmHg 53%
    11:00 +20°C° 0 mm 3 m/S 733 mmHg 50%
    12:00 +22°C° 0 mm 3 m/S 733 mmHg 47%
    13:00 +21°C° 0.3 mm 4 m/S 733 mmHg 51%
    14:00 +21°C° 0.3 mm 5 m/S 732 mmHg 54%
    15:00 +21°C° 0.3 mm 6 m/S 732 mmHg 58%
    16:00 +17°C° 2 mm 6 m/S 732 mmHg 67%
    17:00 +14°C° 2 mm 6 m/S 733 mmHg 76%
    18:00 +11°C° 2 mm 6 m/S 733 mmHg 85%
    19:00 +10°C° 0 mm 5 m/S 734 mmHg 87%
    20:00 +11°C° 0 mm 4 m/S 734 mmHg 89%
    21:00 +11°C° 0 mm 3 m/S 735 mmHg 91%
    22:00 +10°C° 0 mm 3 m/S 735 mmHg 90%
    23:00 +9°C° 0 mm 3 m/S 736 mmHg 90%

    26 April, Freitag

    Zeit Temperatur Niederschläge Wind Luftdruck Luftfeuchtigkeit
    00:00 +8°C° 0 mm 3 m/S 736 mmHg 89%
    01:00 +8°C° 0 mm 3 m/S 736 mmHg 86%
    02:00 +7°C° 0 mm 3 m/S 736 mmHg 83%
    03:00 +7°C° 0 mm 3 m/S 736 mmHg 80%
    04:00 +7°C° 0 mm 3 m/S 737 mmHg 76%
    05:00 +7°C° 0 mm 3 m/S 738 mmHg 73%
    06:00 +7°C° 0 mm 3 m/S 738 mmHg 70%
    07:00 +8°C° 0 mm 4 m/S 739 mmHg 60%
    08:00 +11°C° 0 mm 4 m/S 739 mmHg 50%
    09:00 +13°C° 0 mm 4 m/S 740 mmHg 39%
    10:00 +14°C° 0 mm 4 m/S 740 mmHg 37%
    11:00 +15°C° 0 mm 4 m/S 740 mmHg 35%
    12:00 +17°C° 0 mm 4 m/S 740 mmHg 33%
    13:00 +17°C° 0 mm 4 m/S 740 mmHg 35%
    14:00 +17°C° 0 mm 5 m/S 740 mmHg 36%
    15:00 +17°C° 0 mm 5 m/S 740 mmHg 37%
    16:00 +17°C° 0 mm 4 m/S 740 mmHg 43%
    17:00 +16°C° 0 mm 3 m/S 740 mmHg 48%
    18:00 +15°C° 0 mm 2 m/S 739 mmHg 54%
    19:00 +14°C° 0 mm 2 m/S 739 mmHg 56%
    20:00 +12°C° 0 mm 1 m/S 739 mmHg 57%
    21:00 +11°C° 0 mm 1 m/S 739 mmHg 59%
    22:00 +11°C° 0 mm 1 m/S 739 mmHg 56%
    23:00 +12°C° 0 mm 2 m/S 739 mmHg 54%

    27 April, Samstag

    Zeit Temperatur Niederschläge Wind Luftdruck Luftfeuchtigkeit
    00:00 +12°C° 0 mm 2 m/S 739 mmHg 51%
    01:00 +11°C° 0 mm 3 m/S 738 mmHg 50%
    02:00 +11°C° 0 mm 3 m/S 738 mmHg 48%
    03:00 +11°C° 0 mm 4 m/S 737 mmHg 47%
    04:00 +11°C° 0.1 mm 4 m/S 737 mmHg 53%
    05:00 +10°C° 0.1 mm 5 m/S 736 mmHg 60%
    06:00 +10°C° 0.1 mm 6 m/S 736 mmHg 67%
    07:00 +10°C° 0.7 mm 7 m/S 735 mmHg 70%
    08:00 +10°C° 0.7 mm 8 m/S 734 mmHg 74%
    09:00 +9°C° 0.7 mm 8 m/S 734 mmHg 77%
    10:00 +10°C° 0.1 mm 9 m/S 733 mmHg 75%
    11:00 +11°C° 0.1 mm 9 m/S 732 mmHg 73%
    12:00 +11°C° 0.1 mm 9 m/S 731 mmHg 71%
    13:00 +12°C° 0 mm 9 m/S 730 mmHg 69%
    14:00 +15°C° 0 mm 9 m/S 730 mmHg 68%
    15:00 +16°C° 0 mm 10 m/S 729 mmHg 66%
    16:00 +16°C° 0.1 mm 9 m/S 729 mmHg 71%
    17:00 +16°C° 0.1 mm 7 m/S 729 mmHg 76%
    18:00 +17°C° 0.1 mm 6 m/S 729 mmHg 81%
    19:00 +15°C° 0.1 mm 6 m/S 730 mmHg 80%
    20:00 +12°C° 0.1 mm 7 m/S 730 mmHg 78%
    21:00 +10°C° 0.1 mm 7 m/S 731 mmHg 77%
    22:00 +9°C° 0 mm 6 m/S 732 mmHg 78%
    23:00 +7°C° 0 mm 6 m/S 732 mmHg 78%

    28 April, Sonntag

    Zeit Temperatur Niederschläge Wind Luftdruck Luftfeuchtigkeit
    00:00 +5°C° 0 mm 6 m/S 733 mmHg 78%
    01:00 +5°C° 0 mm 5 m/S 733 mmHg 80%
    02:00 +4°C° 0 mm 4 m/S 734 mmHg 82%
    03:00 +3°C° 0 mm 3 m/S 734 mmHg 84%
    04:00 +3°C° 0 mm 3 m/S 735 mmHg 83%
    05:00 +3°C° 0 mm 3 m/S 736 mmHg 83%
    06:00 +3°C° 0 mm 3 m/S 737 mmHg 83%
    07:00 +5°C° 0 mm 3 m/S 737 mmHg 74%
    08:00 +8°C° 0 mm 3 m/S 738 mmHg 66%
    09:00 +10°C° 0 mm 2 m/S 738 mmHg 58%
    10:00 +12°C° 0 mm 2 m/S 739 mmHg 54%
    11:00 +14°C° 0 mm 2 m/S 739 mmHg 51%
    12:00 +15°C° 0 mm 2 m/S 739 mmHg 47%
    13:00 +14°C° 0 mm 3 m/S 739 mmHg 49%
    14:00 +14°C° 0 mm 4 m/S 739 mmHg 50%
    15:00 +14°C° 0 mm 5 m/S 739 mmHg 52%
    16:00 +10°C° 0.2 mm 5 m/S 739 mmHg 60%
    17:00 +8°C° 0.2 mm 5 m/S 739 mmHg 67%
    18:00 +6°C° 0.2 mm 5 m/S 739 mmHg 74%
    19:00 +5°C° 0 mm 5 m/S 739 mmHg 75%
    20:00 +5°C° 0 mm 5 m/S 739 mmHg 75%
    21:00 +5°C° 0 mm 5 m/S 739 mmHg 76%
    22:00 +5°C° 0 mm 5 m/S 739 mmHg 76%
    23:00 +5°C° 0 mm 5 m/S 738 mmHg 77%
    Mehr zeigen